QB50P2

Last updated on Wed Oct 29 2025 00:03:53 GMT+0000 (Coordinated Universal Time)

1 40032U 14033Y 25301.39179965 .00010138 00000+0 61540-3 0 9991 2 40032 98.0606 279.8116 0006004 236.3720 123.6936 15.10715079617614
UTC large
Height (km)
Speed (km/s)
/
Latitude / Longitude
Inclination (degrees)
Orbital Period (minutes)
Azimuth
Elevation
Range (km)
Doppler Factor

Next 0 passes for location: London (51.5072 / 0.1276)

Sorry there are no passes over London.